1st Responders/1st Detectors/Storm Spotters Weather Summary for Powell County, KY

Forecast Maps


Reg. NEXRAD Animation


National Fire Danger: Day 1 & 2 Map

Current NWS Watch/Warnings

SPC Convective Day 1 Outlook


Day 2 Outlook

(Click images to enlarge|Page will refresh every 5 minutes)
UK Ag. Weather Center Desktop Severe Weather Service[HERE]
Powell County, KY Hazardous Weather Outlook Webcast
(9 AM to 9 PM Mon-Fri)
[Fast]
[Dial-up]


UKAWC 1st Detectors/1st Responders Precision Weather Forecast For POWELL County, Kentucky
(based on the NWS County Digital Forecast)

ISSUED AT 05:00 UTC ON WEDNESDAY DEC 19 2018
DAY WEDNESDAY
EDT 3HR 2A 3A 4A 5A 6A 7A 8A 9A 10A 11A NOON 1P 2P 3P 4P 5P 6P 7P
MAX/MIN -- -- -- -- -- -- 27° -- -- -- -- -- -- -- -- -- -- 58°
TEMP 29° 29° 27° 27° 27° 27° 27° 31° 34° 40° 45° 49° 54° 56° 58° 58° 54° 52°
SKY COVER 2% 5% 8% 23% 27% 26% 25% 13% 9% 7% 5% 5% 7% 12% 17% 22% 30% 38%
Clouds
DEW PT 29° 29° 27° 27° 27° 27° 27° 29° 31° 32° 34° 36° 38° 38° 38° 40° 38° 38°
RH 100% 100% 99% 100% 100% 99% 99% 91% 85% 75% 67% 58% 56% 51% 48% 50% 54% 59%
POP 12HR -- -- -- -- -- -- 0% -- -- -- -- -- -- -- -- -- -- --
RAIN/SNOW (liq.equ) 0.00in -- -- -- -- -- 0.00in -- -- -- -- -- 0.00in -- -- -- -- --
SNOWFALL 0in -- -- -- -- -- 0in -- -- -- -- -- 0in -- -- -- -- --
WIND SPEED(MPH) 0 0 0 0 0 0 0 0 0 0 1 2 2 2 1 1 0 1
WIND Gust(MPH) 1 0 0 0 0 0 0 0 0 1 2 6 6 6 2 2 1 2
WIND DIR SE SE SE SE SE S S S S S SW SW SW SW SW S S S
DEW Frost Frost Freeze Freeze Freeze Freeze Freeze Frost Frost Frost -- -- -- -- -- -- -- --
HeatIndex 29 29 27 27 27 27 27 31 34 40 45 49 54 56 58 58 54 52
Snow -- -- -- -- -- -- -- -- -- -- -- -- -- -- -- -- -- --
Rain -- -- -- -- -- -- -- -- -- -- -- -- -- -- -- -- -- --
Fog Areas of Areas of Areas of Areas of Areas of Areas of Areas of Patchy -- -- -- -- -- -- -- -- -- --
WIND CHILL -- -- -- -- -- -- -- -- -- -- -- -- -- -- -- -- -- --
SPRAY COND
DRY COND
LIVESTOCK COLDSTRESS



DAY THURSDAY FRIDAY SATURDAY SUNDAY MONDAY TUESDAY
EDT 6HR 8P 9P 10P 11P MIDN 1A 2A 3A 4A 5A 6A 7A 8A 9A 10A 11A NOON 1P 2P 5P 8P 11P 2A 5A 8A 11A 2P 5P 8P 2A 8A 2P 8P 2A 8A 2P 8P 2A 8A 2P 8P 2A 8A 2P 8P
MAX/MIN -- -- -- -- -- -- -- -- -- -- -- -- 41° -- -- -- -- -- -- 49° -- -- -- -- 40° -- -- 40° -- -- 29° 41° -- -- 29° 47° -- -- 27° 45° -- -- 29° 49° --
TEMP 49° 45° 45° 45° 43° 43° 45° 45° 45° 45° 43° 41° 43° 43° 45° 47° 47° 47° 49° 49° 47° 45° 43° 43° 40° 40° 40° 40° 34° 34° 29° 40° 36° 29° 29° 45° 38° 31° 27° 43° 38° 29° 31° 45° 41°
SKY COVER 46% 52% 57% 63% 75% 88% 100% 100% 100% 100% 98% 95% 93% 92% 90% 89% 91% 96% 100% 100% 100% 100% 100% 100% 100% 100% 100% 100% 97% 79% 66% 39% 31% 54% 53% 56% 52% 32% 31% 37% 32% 44% 49% 59% 63%
Clouds
DEW PT 38° 38° 38° 38° 36° 36° 38° 38° 38° 38° 38° 38° 38° 38° 40° 40° 41° 41° 43° 43° 43° 43° 43° 41° 40° 40° 38° 36° 34° 29° 27° 27° 29° 29° 29° 31° 32° 29° 27° 27° 27° 27° 27° 36° 36°
RH 67% 73% 76% 76% 76% 75% 76% 76% 76% 76% 78% 85% 82% 82% 82% 79% 79% 79% 79% 79% 86% 95% 96% 92% 100% 95% 92% 88% 99% 81% 92% 59% 75% 99% 100% 60% 79% 91% 95% 55% 66% 88% 88% 70% 82%
POP 12HR 0% -- -- -- -- -- -- -- -- -- -- -- 32% -- -- -- -- -- -- -- 91% -- -- -- 95% -- -- -- 89% -- 64% -- 5% -- 4% -- 11% -- 9% -- 4% -- 8% -- 22%
RAIN/SNOW (liq.equ) 0.00in -- -- -- -- -- 0.00in -- -- -- -- -- 0.00in -- -- -- -- -- 0.02in -- 0.25in -- 0.31in -- 0.22in -- 0.21in -- 0.10in -- -- -- -- -- -- -- -- -- -- -- -- -- -- -- --
SNOWFALL 0in -- -- -- -- -- 0in -- -- -- -- -- 0in -- -- -- -- -- 0in -- 0in -- 0in -- 0in -- 0in -- 0in -- -- -- -- -- -- -- -- -- -- -- -- -- -- -- --
WIND SPEED(MPH) 1 1 1 1 1 0 0 0 0 0 0 1 1 1 2 2 2 5 5 5 5 5 7 7 9 10 13 13 10 8 7 7 6 5 6 7 7 6 5 5 2 5 6 7 6
WIND DIR S S S S S S S S S S S SE SE SE E E E E E E NE N N N N NW NW NW NW W W W SW SW SW W W W W SW SE SE S SW S
HeatIndex 49 45 45 45 43 43 45 45 45 45 43 41 43 43 43 47 47 47 49 49 47 42 40 40 34 34 33 32 26 26 21 36 31 25 23 40 34 25 22 40 35 25 25 45 38
Snow -- -- -- -- -- -- -- -- -- -- -- -- -- -- -- -- -- -- -- -- -- -- -- -- -- -- -- -- -- Slight Chance -- -- -- -- -- -- -- -- -- -- -- -- -- -- --
Rain -- -- -- -- -- -- -- -- Slight Chance Slight Chance Chance Chance Chance Chance Chance Chance Chance Likely Likely Definite Definite Definite Definite Definite Definite Definite Definite Definite Likely Slight Chance -- -- -- -- -- -- -- -- -- -- -- -- -- Slight Chance Slight Chance
Fog -- -- -- -- -- -- -- -- -- -- -- -- -- -- -- -- -- -- -- -- -- -- -- -- -- -- -- -- -- -- -- -- -- -- -- -- -- -- -- -- -- -- -- -- --
WIND CHILL -- -- -- -- -- -- -- -- -- -- -- -- -- -- -- -- -- -- -- -- -- 43° 39° 39° 34° 34° 33° 33° 26° 27° 22° 35° 31° 24° 23° 41° 33° 25° 22° 40° -- 24° 25° 41° 37°
SPRAY COND
DRY COND
LIVESTOCK COLDSTRESS

Click on individual weather variable above in left-hand column (ie., TEMP, RH, QPF 12HR) to view state forecast maps






NWS 48 Hr. Forecast Maps,

Regional Hourly Observations For POWELL County, Kentucky
Issued at 1200 AM EST WED DEC 19 2018
NORTHEAST KENTUCKY
  
CITY           SKY/WX    TMP DP  RH WIND       PRES   REMARKS
LEXINGTON      FAIR      34  27  75 CALM      30.11F                  
COVINGTON      FAIR      34  26  72 SE3       30.10F                  
FRANKFORT      FAIR      28  25  88 CALM      30.10F                  


Current NOWCAST not available:
Nowcasts are not issued routinely during fair weather. Only when
precipitation or other significant weather is occuring in this county will these
forecasts be issued. Currently, there is no short term forecast in effect.


Fire Weather Forecast For POWELL County, KY
Provided by the National Weather Service:

Issued at: Wed Dec 19 00:05:01 EST 2018

438 AM EST Tue Dec 18 2018

                      Today        Tonight      Wed          

Cloud Cover           MClear       MClear       MClear       
Chance precip (%)     0            0            0            
Precip type           None         None         None         
Temp (24H TREND)      45-46 (-6)   25-32 (+4)   56-59        
Rh % (24H TREND)      49-52 (+4)   81-100 (+5)  40-43        
20ftwnd-AM(mph)       Lgt/Var                   Lgt/Var      
20ftwnd-PM(mph)       Lgt/Var      Lgt/Var      Lgt/Var      
Precip duration                                              
Precip begin                                                 
Precip end                                                   
Precip amount         0.00         0.00         0.00         
LAL                   1            1            1            
Haines Index (MID)    4                         4            
Mixing hgt(ft-AGL)    2100                      1900         
Transport wnd (mph)   NE  5                     SW 13        
Vent rate (kt-ft)     8418                      21849        
ADI Early             13 Gen Poor  4 Very Poor  27 Fair      
ADI Late              12 Poor      12 Poor      32 Fair      
Max LVORI Early       7            5            5            
Max LVORI Late        3            6            3            

REMARKS...RANGES OF MIN T EXCEEDING 8 DEGREES & RANGES OF MAX RH        
EXCEEDING 10% INDICATE THE LIKELIHOOD OF THERMAL BELTS. ADI IS        
ATMOSPHERIC DISPERSION INDEX BY LAVDAS. DISPERSION INDEX IS        
MAGNITUDE OF VENT RATE DIVIDED BY 1000.


SPC's Fire Weather Web Tool (Excellent!), SPC's Fire Weather Outlooks, NWS Fire Weather WEB, Fire Danger Class Map,
Keetch-Byram Drought Index, ROMAN Web, Haines Index ,
WFAS's 10-hr Dead Fuel Moist., WFAS's 100-hr Dead Fuel Moist., Probablity of Ignition, Visual blackness Map, Palmer Drought Index, HPC's Rainfall Forecast Maps


Hazardous Weather Outlook For POWELL County, Kentucky
345 PM EST Tue Dec 18 2018

 DAY ONE  Tonight.

No hazardous weather is expected at this time.

 DAYS TWO THROUGH SEVEN  Wednesday through Monday.

Heavy rain is expected Thursday and Friday. This could lead to a 
period of high water along streams and rivers.

Some light accumulating snow is possible Friday night, mainly in 
the higher terrain closer to the Virginia border.

 SPOTTER INFORMATION STATEMENT  

Spotter activation is not anticipated.

Latest POWELL County, Kentucky Watches, Warnings and Advisories.
Additional Drought Info.: UKAWC Drought Page, Kentucky Drought Watch


7-Day Forecast For POWELL County, KY

REST OF TONIGHT
Clear. Areas of valley fog. Lows in the upper 20s. Light winds.

WEDNESDAY
Sunny. Highs in the upper 50s. Light winds.

WEDNESDAY NIGHT
Mostly cloudy. A slight chance of rain late. A chance of rain near dawn. Lows in the lower 40s. Light winds. Chance of rain 30 percent.

THURSDAY
Rain. Highs around 50. Light winds. Chance of rain 90 percent.

THURSDAY NIGHT
Rain. Lows in the lower 40s. Light winds becoming north around 10 mph late. Chance of rain near 100 percent.

FRIDAY
Rain. Highs in the lower 40s. Chance of rain 90 percent.

FRIDAY NIGHT
Mostly cloudy with snow or rain likely. Lows in the upper 20s. Chance of precipitation 70 percent.

SATURDAY
Mostly sunny. Highs in the lower 40s.

SATURDAY NIGHT
Partly cloudy. Lows in the upper 20s.

SUNDAY
Partly sunny. Highs in the upper 40s.

SUNDAY NIGHT
Partly cloudy. Lows in the upper 20s.

MONDAY
Mostly sunny. Highs in the mid 40s.

MONDAY NIGHT
Partly cloudy. Lows in the lower 30s.

CHRISTMAS DAY
Partly sunny with a 20 percent chance of rain or snow. Highs around 50.

Ag Weather Center, Department of Biosystems & Agricultural Engineering, University of Kentucky